Zurück zum Katalog

STARLINK-36486

AktivKommunikationVLEO
NORAD 67335·PAYLOAD·🇺🇸 United States

Gestartet Jan 9, 2026 von Cape Canaveral Space Force Station

Loading…

Nächste Überflüge (nächste 24 Stunden)

TLE

AktuellSource: CelesTrak SupGP

Epoche: Sep 15, 2026, 03:07 UTC

1 67335C 26003B   26258.13034722 -.00036858  00000+0 -13352-2 0  2585
2 67335  42.9991 236.9692 0001364 268.5798 290.3405 15.27591283    13

Verfolge STARLINK-36486 in Echtzeit mit AllMySat

Download on the App Store